This is the latest recevied weather packets stored in our database for station/object OZ1IEP-5. If no packets are shown the sender has not sent any weather packets the latest 10 day(s).
| Time | Temp. | Humidity | Pressure | Rain* | Wind** | Luminosity | Snow |
|---|---|---|---|---|---|---|---|
| 1788096608 | 19.44° C | 92% | 1000.9 hPa | 0 mm | - | 232 W/m² | - |
| 1788096006 | 19.44° C | 93% | 1000.9 hPa | 0 mm | - | 230 W/m² | - |
| 1788095406 | 19.44° C | 93% | 1000.8 hPa | 0.25 mm | - | 387 W/m² | - |
| 1788094809 | 18.89° C | 93% | 1000.8 hPa | 0.25 mm | - | 162 W/m² | - |
| 1788094205 | 18.89° C | 93% | 1000.8 hPa | 0.25 mm | - | 253 W/m² | - |
| 1788093605 | 18.33° C | 93% | 1000.8 hPa | 0.25 mm | - | 172 W/m² | - |
| 1788093008 | 18.33° C | 93% | 1000.7 hPa | 0.25 mm | - | 113 W/m² | - |
| 1788092405 | 18.33° C | 93% | 1000.7 hPa | 0.25 mm | - | 98 W/m² | - |
| 1788091806 | 18.33° C | 93% | 1000.8 hPa | 0.25 mm | - | 151 W/m² | - |
| 1788091208 | 18.33° C | 93% | 1000.7 hPa | 0.25 mm | - | 77 W/m² | - |
| 1788090606 | 18.89° C | 93% | 1000.6 hPa | 0.25 mm | - | 86 W/m² | - |
| 1788090006 | 18.89° C | 93% | 1000.7 hPa | 0.25 mm | - | 141 W/m² | - |
| 1788089408 | 18.89° C | 93% | 1000.5 hPa | 0.51 mm | - | 162 W/m² | - |
| 1788088805 | 18.33° C | 93% | 1000.4 hPa | 0.76 mm | - | 95 W/m² | - |
| 1788088206 | 18.33° C | 93% | 1000.5 hPa | 1.52 mm | - | 102 W/m² | - |
| 1788087608 | 18.33° C | 93% | 1000.7 hPa | 1.52 mm | - | 130 W/m² | - |
| 1788087006 | 18.33° C | 93% | 1000.7 hPa | 1.52 mm | - | 141 W/m² | - |
| 1788086406 | 18.33° C | 93% | 1000.6 hPa | 1.52 mm | - | 100 W/m² | - |
| 1788085809 | 18.33° C | 92% | 1000.7 hPa | 1.27 mm | - | 248 W/m² | - |
| 1788085205 | 18.33° C | 92% | 1000.8 hPa | 0.76 mm | - | 90 W/m² | - |
| 1788084605 | 18.33° C | 92% | 1000.9 hPa | 0 mm | - | 118 W/m² | - |
| 1788084008 | 18.33° C | 92% | 1000.8 hPa | 0 mm | - | 188 W/m² | - |
| 1788083406 | 18.33° C | 93% | 1000.8 hPa | 0 mm | - | 128 W/m² | - |
| 1788082805 | 18.33° C | 93% | 1000.9 hPa | 0 mm | - | 239 W/m² | - |
| 1788082209 | 18.33° C | 93% | 1000.9 hPa | 0 mm | - | 121 W/m² | - |
* Rain latest hour (hover to see other rain measurements)
** Current wind speed in m/s (hover to see current wind gust speed)